Location: Emblem
(62.4273°N, 6.4710°E)
Time: 06:37:01
(UTC+01:00)

Transit 2A - Visible Passes

Search period start: 03 March 2024 00:00
Search period end: 13 March 2024 00:00
Orbit: 599 x 953 km, 66.7° (Epoch: 02 March)

Date Brightness Start Highest point End Pass type
(mag) Time Alt. Az. Time Alt. Az. Time Alt. Az.
03 Mar 8.3 00:14:04 10° WNW 00:14:30 13° WNW 00:14:30 13° WNW visible
03 Mar 5.5 20:12:07 10° SW 20:16:27 75° SE 20:19:52 18° ENE visible
03 Mar 6.2 21:55:25 10° W 21:59:46 55° NNW 22:00:18 51° NNE visible
03 Mar 7.7 23:38:59 10° WNW 23:40:45 23° WNW 23:40:45 23° WNW visible
04 Mar 5.6 19:37:11 10° SW 19:41:28 60° SE 19:45:58 10° ENE visible
04 Mar 6.0 21:20:16 10° W 21:24:38 60° NNW 21:26:28 34° NE visible
04 Mar 7.0 23:03:52 10° WNW 23:06:55 38° NW 23:06:55 38° NW visible
05 Mar 8.4 00:47:07 10° WNW 00:47:21 11° WNW 00:47:21 11° WNW visible
05 Mar 5.9 19:02:20 10° SSW 19:06:31 47° SE 19:10:54 10° ENE visible
05 Mar 5.9 20:45:09 10° WSW 20:49:31 67° NNW 20:52:35 21° ENE visible
05 Mar 6.4 22:28:45 10° WNW 22:33:01 50° N 22:33:01 50° N visible
06 Mar 7.9 00:12:05 10° WNW 00:13:27 20° WNW 00:13:27 20° WNW visible
06 Mar 5.7 20:10:03 10° WSW 20:14:26 77° NNW 20:18:37 13° ENE visible
06 Mar 6.4 21:53:36 10° W 21:57:58 50° N 21:59:03 41° NE visible
06 Mar 7.3 23:37:01 10° WNW 23:39:29 32° NW 23:39:29 32° NW visible
07 Mar 5.6 19:34:59 10° SW 19:39:22 90° SSE 19:44:02 10° ENE visible
07 Mar 6.3 21:18:26 10° W 21:22:48 52° N 21:25:03 28° NE visible
07 Mar 6.6 23:01:56 10° WNW 23:05:29 48° NNW 23:05:29 48° NNW visible
08 Mar 8.1 00:45:04 10° WNW 00:45:55 15° WNW 00:45:55 15° WNW visible
08 Mar 5.6 18:59:59 10° SW 19:04:20 75° SE 19:08:57 10° ENE visible
08 Mar 6.2 20:43:17 10° W 20:47:39 55° NNW 20:51:02 18° ENE visible
08 Mar 6.2 22:26:51 10° WNW 22:31:19 54° NNE 22:31:28 54° NNE visible
09 Mar 7.6 00:10:01 10° WNW 00:11:53 25° WNW 00:11:53 25° WNW visible
09 Mar 6.1 20:08:07 10° W 20:12:31 60° NNW 20:16:59 11° ENE visible
09 Mar 6.3 21:51:44 10° WNW 21:56:10 52° N 21:57:24 40° NE visible
09 Mar 6.9 23:34:58 10° WNW 23:37:50 39° NW 23:37:50 39° NW visible
10 Mar 8.4 01:18:07 10° WNW 01:18:15 11° WNW 01:18:15 11° WNW visible
10 Mar 5.9 19:32:59 10° WSW 19:37:23 67° NNW 19:42:06 10° ENE visible
10 Mar 6.4 21:16:35 10° WNW 21:21:00 50° N 21:23:20 27° ENE visible
10 Mar 6.2 22:59:55 10° WNW 23:03:45 59° NW 23:03:45 59° NW visible
11 Mar 8.0 00:43:01 10° WNW 00:44:10 17° WNW 00:44:10 17° WNW visible
11 Mar 6.4 20:41:26 10° W 20:45:49 50° N 20:49:15 18° ENE visible
11 Mar 5.9 22:24:50 10° WNW 22:29:27 66° NNE 22:29:40 64° NE visible
12 Mar 7.4 00:07:57 10° WNW 00:10:06 27° WNW 00:10:06 27° WNW visible
12 Mar 6.3 20:06:16 10° W 20:10:39 52° N 20:15:10 11° ENE visible
12 Mar 6.1 21:49:45 10° WNW 21:54:19 59° NNE 21:55:35 44° ENE visible
12 Mar 6.7 23:32:53 10° WNW 23:36:01 41° WNW 23:36:01 41° WNW visible
